Home   Weather   Hoyerswerda   Past weeks

Flag for Germany Past Weather in Hoyerswerda, Saxony, Germany — Yesterday and Last 2 Weeks

Now
57 °F

Clear.


Feels Like: 57 °F
Forecast: 55 / 80 °F
Wind: 3 mph from South

Location: Dresden-Klotzsche

Current Time: Sep 1, 2016 at 1:34:49 AM

Latest Report: Sep 1, 2016 at 12:50 AM


Visibility: 10 mi

Pressure: 30.12 "Hg

Humidity: 77%

Dew Point: 50 °F

Location of HoyerswerdaLocation

Past Weather in Hoyerswerda — Graph

°F

Hoyerswerda Temperature Yesterday

Maximum temperature yesterday: 75 °F (at 1:50 PM)
Minimum temperature yesterday: 48 °F (at 5:20 AM)
Average temperature yesterday: 63 °F

High & Low Weather Summary for the Past Weeks

 TemperatureHumidityPressure
High90 °F (Aug 28, 2:20 PM)100% (Aug 17, 1:20 AM)30.36 "Hg (Aug 17, 1:20 AM)
Low46 °F (Aug 18, 5:20 AM)29% (Aug 28, 2:50 PM)29.80 "Hg (Aug 18, 3:50 PM)
Average67 °F65%30.10 "Hg
* Reported Aug 17 12:20 AM — Sep 1 12:20 AM, Hoyerswerda, Weather by CustomWeather, © 2016

Note: Actual official high and low records may vary slightly from our data, if they occured in-between our weather recording intervals... More about our weather records

Advertising

Hoyerswerda Weather History for the Previous 24 Hours

Scroll right to see more
 ConditionsComfort  
Time TempWeatherWind HumidityBarometerVisibility
12:20 AM
Thu, Sep 1
57 °FClear.3 mph77%30.12 "Hg10 mi
11:50 PM
Wed, Aug 31
61 °FClear.5 mph63%30.12 "Hg10 mi
11:20 PM61 °FClear.6 mph59%30.12 "Hg10 mi
10:50 PM63 °FClear.6 mph56%30.12 "Hg10 mi
10:20 PM63 °FClear.7 mph56%30.12 "Hg10 mi
9:50 PM64 °FClear.5 mph52%30.12 "Hg10 mi
9:20 PM66 °FClear.6 mph49%30.15 "Hg10 mi
8:50 PM66 °FSunny.5 mph49%30.15 "Hg10 mi
8:20 PM68 °FSunny.6 mph43%30.12 "Hg10 mi
7:50 PM70 °FSunny.5 mph40%30.12 "Hg10 mi
7:20 PM72 °FSunny.6 mph38%30.12 "Hg10 mi
6:50 PM73 °FPassing clouds.7 mph33%30.12 "HgN/A
6:20 PM75 °FSunny.9 mph31%30.12 "Hg10 mi
5:50 PM75 °FSunny.10 mph31%30.15 "Hg10 mi
5:20 PM75 °FSunny.10 mph31%30.15 "Hg10 mi
4:50 PM75 °FSunny.9 mph31%30.15 "Hg10 mi
4:20 PM75 °FSunny.9 mph29%30.15 "Hg10 mi
3:50 PM75 °FSunny.10 mph29%30.18 "Hg10 mi
3:20 PM75 °FPassing clouds.9 mph34%30.18 "HgN/A
2:50 PM75 °FSunny.10 mph31%30.18 "Hg10 mi
2:20 PM75 °FSunny.9 mph31%30.21 "Hg10 mi
1:50 PM75 °FSunny.10 mph34%30.21 "Hg10 mi
1:20 PM73 °FSunny.9 mph33%30.21 "Hg10 mi
12:50 PM73 °FSunny.12 mph36%30.21 "Hg10 mi
12:20 PM72 °FSunny.10 mph38%30.21 "Hg10 mi
11:50 AM70 °FSunny.12 mph43%30.24 "Hg10 mi
11:20 AM70 °FSunny.10 mph43%30.24 "Hg10 mi
10:50 AM68 °FPassing clouds.9 mph46%30.24 "HgN/A
10:20 AM66 °FSunny.10 mph49%30.24 "Hg10 mi
9:50 AM64 °FSunny.9 mph52%30.24 "Hg10 mi
9:20 AM63 °FPassing clouds.8 mph59%30.24 "HgN/A
8:50 AM61 °FSunny.7 mph63%30.24 "Hg10 mi
8:20 AM59 °FSunny.3 mph68%30.24 "Hg10 mi
7:50 AM55 °FSunny.3 mph82%30.27 "Hg10 mi
7:20 AM52 °FSunny.6 mph88%30.27 "Hg10 mi
6:50 AM50 °FClear.6 mph88%30.27 "Hg10 mi
6:20 AM48 °FClear.6 mph94%30.27 "Hg10 mi
5:50 AM48 °FClear.6 mph100%30.27 "Hg10 mi
5:20 AM48 °FClear.5 mph100%30.27 "Hg10 mi
4:50 AM50 °FClear.5 mph94%30.27 "Hg10 mi
4:20 AM50 °FClear.3 mph94%30.27 "Hg10 mi
3:50 AM50 °FClear.2 mph94%30.27 "Hg10 mi
3:20 AM52 °FClear.5 mph88%30.27 "Hg10 mi
2:50 AM52 °FClear.6 mph88%30.27 "Hg10 mi
2:20 AM52 °FClear.6 mph88%30.27 "Hg10 mi
1:50 AM54 °FClear.5 mph82%30.27 "Hg10 mi
1:20 AM55 °FClear.6 mph77%30.27 "Hg10 mi
Weather by CustomWeather, © 2016

See weather overviewHow to use our weather pages